Weather in Linevo

Russia / Volgograd Oblast     50°53′07″N   44°49′29″E
temp.,
°C
wind,
m/s
gust,
m/s
humid.,
%
clouds,
%
prec.,
mm/h
press.,
hPa
HPBL,
m
31 july, sat
sat3100:00+20wsw337569 0.3 100843
03:00+20ssw378464 0.3 1008161
06:00+21sw4978100 0.0 1008302
09:00+26wsw4758100 0.0 1009598
12:00+30wsw574487 0.0 10091658
15:00+29wsw6648100 0.0 10101133
18:00+30wsw354588 0.1 1010741
21:00+22nw1169100 4.5 101113
1 august, sun
sun100:00+21wsw11704 0.0 101211
03:00+21se127080 0.0 101313
06:00+23se00655 0.0 101338
09:00+28nnw10464 0.3 1013539
12:00+32sw23352 0.0 10131896
15:00+34w34287 0.0 10122547
18:00+31ese223611 0.0 1012190
21:00+25e11445 0.0 101311
2 august, mon
mon200:00+24ene22473 0.0 101313
03:00+22e22500 0.0 101315
06:00+24ese265616 0.0 1013131
09:00+31sse35354 0.0 1013580
12:00+36s34165 0.0 10124009
15:00+37ssw351520 0.0 10104068
18:00+33s35270 0.0 1010183
21:00+29sw223269 0.0 101025
3 august, tue
tue300:00+26sse223868 0.1 101012
03:00+23se33406 0.2 100916
06:00+24s37385 0.0 1010131
09:00+32ssw582476 0.0 1009575
12:00+36ssw6821100 0.0 10091754
15:00+37sw5914100 0.0 10074240
18:00+35ssw591635 0.0 1005342
21:00+20wnw91475100 0.1 1013771
4 august, wed
wed400:00+19nne4891100 2.8 1010193
03:00+20nnw2387100 2.9 101162
06:00+19nw4890100 0.8 1012279
09:00+21n1275100 1.1 1013380
12:00+27nw3448100 0.0 10131537
15:00+29nw653783 0.0 10122620
18:00+25n47486 0.0 1013513
21:00+21nne3358100 0.0 101427